COSMOS 2251 DEB, 37491

Orbit data source: Space-Track

COSMOS 2251 DEB, 37491 is space debris in LEO originally from a launch on Wed, 16 Jun 1993 UTC launched from the Plesetsk Missile And Space Complex (PKMTR). The debris from Iridium 33, an American commercial communications satellite, has been tracked extensively since its accidental collision with the defunct Russian satellite Cosmos 2251 in 2009. This event, occurring at high speed in low Earth orbit (LEO), generated thousands of pieces of space debris, significantly increasing the risk of further collisions. The Iridium 33 debris cloud has impacted space traffic management and orbital debris mitigation strategies, making it a subject of ongoing study in space situational awareness.

Loading next visibility...
Identifier
37491, 1993-036BLU
Orbit
LEO
Country
Flag of CISCIS
Related business
Manufacturer
Unknown
Mission
Spacecraft
Bus & Motor
Unknown
Mass
Unknown
Launch date (UTC)
1993-06-16 (32 years ago)
Launch vehicle
Unknown
Launch site
Plesetsk Missile And Space Complex (PKMTR)
Object type
Payload
Rocket body
Debris
Shape & HBR
Unknown shape, 0.1 m
Radar Cross Section
Small (<0.1 m²)

Expand to show TLE details & history
Last TLE update: 8 hours ago

TLE from 8 hours ago
0 COSMOS 2251 DEB
1 37491U 93036BLU 25299.86153721  .00001495  00000-0  11025-2 0  9995
2 37491  73.9065 352.6729 0317133 354.2007   5.5470 13.75031826551029
Epoch: 2025-10-26T20:40Z
TLE epoch observation values (Epoch: 2025-10-26T20:40:36.814Z)
Latitude
-0.00006°
Longitude
7.04783°
Altitude
751.823 km
Speed
7.596 km/s
True Right ascension
23h 30m 41s
True Declination
0° 00' 00"
Sunlit
Object was in full shadow at epoch
Visualization orbit readout
Latitude
Unknown
Longitude
Unknown
Altitude
Unknown
Speed
Unknown
Apparent Right ascension
Unknown
Apparent Declination
Unknown
Sunlit
N/A
Visualization observer readout
Local Sidereal Time
23:43:58
Azimuth
Unknown
Elevation
Unknown
Doppler factor
Unknown
Orbital elements
Apogee altitude
1,212.588 km
Perigee altitude
745.933 km
Semi-major axis
7,357.398 km
Eccentricity
0.03171
Inclination
73.9065°
RAAN
352.6729°
Arg. of periapsis
354.2007°
True anomaly
5.91268°
Mean anomaly
5.547°
Eccentric anomaly
5.72836°
Mean motion
3.4392 °/min
Orbital period
104.68 mins
BSTAR
0.0011025
Loading maneuver chart data...
Computing Atmospheric mass density...

Documentation

Showing up to 5 results
|